User: anonymous   Login
Location: Unspecified
(0.0000°N, 0.0000°E)
Time: 01:28:34
(UTC+00:00)
Language:

DNEPR OBJECT X - Orbit

View from above orbital plane
View from above orbital plane
View from above satellite
View from above satellite

Ground track
Ground track

The orbit data is extracted from the following two-line orbital elements,

1 39437U 13066X   17266.57803804 +.00020326 +00000-0 +63487-3 0  9993
2 39437 097.7144 011.7529 0010735 126.4074 233.8159 15.33164426210127
Epoch (UTC): 23 September 2017 13:52:22
Eccentricity: 0.0010735
inclination: 97.7144°
perigee height: 459 km
apogee height: 474 km
right ascension of ascending node: 11.7529°
argument of perigee: 126.4074°
revolutions per day: 15.33164426
mean anomaly at epoch: 233.8159°
orbit number at epoch: 21012

The dashed part of the orbit path shows where the satellite is in the earth's shadow,  

DLR